Year,Month,Day,Hour,Minute,Value (Times are PST for temperature in C)
2009,07,02,00,00,13.60
2009,07,02,00,01,13.50
2009,07,02,00,02,13.50
2009,07,02,00,03,13.50
2009,07,02,00,04,13.50
2009,07,02,00,05,13.50
2009,07,02,00,06,13.50
2009,07,02,00,07,13.50
2009,07,02,00,08,13.40
2009,07,02,00,09,13.40
2009,07,02,00,10,13.40
2009,07,02,00,11,13.40
2009,07,02,00,12,13.40
2009,07,02,00,13,13.30
2009,07,02,00,14,13.30
2009,07,02,00,15,13.30
2009,07,02,00,16,13.30
2009,07,02,00,17,13.30
2009,07,02,00,18,13.30
2009,07,02,00,19,13.30
2009,07,02,00,20,13.20
2009,07,02,00,21,13.20
2009,07,02,00,22,13.20
2009,07,02,00,23,13.10
2009,07,02,00,24,13.10
2009,07,02,00,25,13.10
2009,07,02,00,26,13.10
2009,07,02,00,27,13.00
2009,07,02,00,28,13.00
2009,07,02,00,29,13.00
2009,07,02,00,30,13.00
2009,07,02,00,31,12.90
2009,07,02,00,32,12.90
2009,07,02,00,33,12.90
2009,07,02,00,34,12.90
2009,07,02,00,35,12.90
2009,07,02,00,36,12.80
2009,07,02,00,37,12.80
2009,07,02,00,38,12.80
2009,07,02,00,39,12.80
2009,07,02,00,40,12.80
2009,07,02,00,41,12.80
2009,07,02,00,42,12.80
2009,07,02,00,43,12.80
2009,07,02,00,44,12.80
2009,07,02,00,45,12.80
2009,07,02,00,46,12.70
2009,07,02,00,47,12.70
2009,07,02,00,48,12.70
2009,07,02,00,49,12.60
2009,07,02,00,50,12.60
2009,07,02,00,51,12.60
2009,07,02,00,52,12.50
2009,07,02,00,53,12.50
2009,07,02,00,54,12.50
2009,07,02,00,55,12.50
2009,07,02,00,56,12.40
2009,07,02,00,57,12.40
2009,07,02,00,58,12.40
2009,07,02,00,59,12.40
2009,07,02,01,00,12.40
2009,07,02,01,01,12.30
2009,07,02,01,02,12.30
2009,07,02,01,03,12.30
2009,07,02,01,04,12.30
2009,07,02,01,05,12.30
2009,07,02,01,06,12.30
2009,07,02,01,07,12.30
2009,07,02,01,08,12.30
2009,07,02,01,09,12.30
2009,07,02,01,10,12.30
2009,07,02,01,11,12.30
2009,07,02,01,12,12.30
2009,07,02,01,13,12.30
2009,07,02,01,14,12.30
2009,07,02,01,15,12.30
2009,07,02,01,16,12.30
2009,07,02,01,17,12.30
2009,07,02,01,18,12.30
2009,07,02,01,19,12.30
2009,07,02,01,20,12.20
2009,07,02,01,21,12.20
2009,07,02,01,22,12.20
2009,07,02,01,23,12.20
2009,07,02,01,24,12.10
2009,07,02,01,25,12.10
2009,07,02,01,26,12.10
2009,07,02,01,27,12.10
2009,07,02,01,28,12.00
2009,07,02,01,29,12.00
2009,07,02,01,30,12.00
2009,07,02,01,31,11.90
2009,07,02,01,32,11.90
2009,07,02,01,33,11.80
2009,07,02,01,34,11.80
2009,07,02,01,35,11.80
2009,07,02,01,36,11.80
2009,07,02,01,37,11.80
2009,07,02,01,38,11.80
2009,07,02,01,39,11.80
2009,07,02,01,40,11.80
2009,07,02,01,41,11.80
2009,07,02,01,42,11.80
2009,07,02,01,43,11.80
2009,07,02,01,44,11.80
2009,07,02,01,45,11.80
2009,07,02,01,46,11.80
2009,07,02,01,47,11.80
2009,07,02,01,48,11.80
2009,07,02,01,49,11.80
2009,07,02,01,50,11.80
2009,07,02,01,51,11.80
2009,07,02,01,52,11.80
2009,07,02,01,53,11.80
2009,07,02,01,54,11.80
2009,07,02,01,55,11.80
2009,07,02,01,56,11.70
2009,07,02,01,57,11.70
2009,07,02,01,58,11.70
2009,07,02,01,59,11.70
2009,07,02,02,00,11.70
2009,07,02,02,01,11.70
2009,07,02,02,02,11.70
2009,07,02,02,03,11.70
2009,07,02,02,04,11.70
2009,07,02,02,05,11.70
2009,07,02,02,06,11.70
2009,07,02,02,07,11.70
2009,07,02,02,08,11.70
2009,07,02,02,09,11.70
2009,07,02,02,10,11.60
2009,07,02,02,11,11.60
2009,07,02,02,12,11.60
2009,07,02,02,13,11.60
2009,07,02,02,14,11.60
2009,07,02,02,15,11.60
2009,07,02,02,16,11.70
2009,07,02,02,17,11.70
2009,07,02,02,18,11.70
2009,07,02,02,19,11.70
2009,07,02,02,20,11.70
2009,07,02,02,21,11.70
2009,07,02,02,22,11.70
2009,07,02,02,23,11.70
2009,07,02,02,24,11.80
2009,07,02,02,25,11.80
2009,07,02,02,26,11.80
2009,07,02,02,27,11.80
2009,07,02,02,28,11.80
2009,07,02,02,29,11.80
2009,07,02,02,30,11.80
2009,07,02,02,31,11.80
2009,07,02,02,32,11.80
2009,07,02,02,33,11.80
2009,07,02,02,34,11.80
2009,07,02,02,35,11.80
2009,07,02,02,36,11.80
2009,07,02,02,37,11.80
2009,07,02,02,38,11.80
2009,07,02,02,39,11.80
2009,07,02,02,40,11.80
2009,07,02,02,41,11.80
2009,07,02,02,42,11.80
2009,07,02,02,43,11.80
2009,07,02,02,44,11.80
2009,07,02,02,45,11.90
2009,07,02,02,46,12.00
2009,07,02,02,47,12.10
2009,07,02,02,48,12.10
2009,07,02,02,49,12.30
2009,07,02,02,50,12.30
2009,07,02,02,51,12.30
2009,07,02,02,52,12.40
2009,07,02,02,53,12.50
2009,07,02,02,54,12.50
2009,07,02,02,55,12.60
2009,07,02,02,56,12.60
2009,07,02,02,57,12.70
2009,07,02,02,58,12.70
2009,07,02,02,59,12.70
2009,07,02,03,00,12.80
2009,07,02,03,01,12.80
2009,07,02,03,02,12.80
2009,07,02,03,03,12.80
2009,07,02,03,04,12.80
2009,07,02,03,05,12.80
2009,07,02,03,06,12.80
2009,07,02,03,07,12.80
2009,07,02,03,08,12.70
2009,07,02,03,09,12.70
2009,07,02,03,10,12.70
2009,07,02,03,11,12.70
2009,07,02,03,12,12.70
2009,07,02,03,13,12.60
2009,07,02,03,14,12.60
2009,07,02,03,15,12.50
2009,07,02,03,16,12.50
2009,07,02,03,17,12.50
2009,07,02,03,18,12.40
2009,07,02,03,19,12.40
2009,07,02,03,20,12.30
2009,07,02,03,21,12.30
2009,07,02,03,22,12.30
2009,07,02,03,23,12.20
2009,07,02,03,24,12.20
2009,07,02,03,25,12.10
2009,07,02,03,26,12.10
2009,07,02,03,27,12.00
2009,07,02,03,28,12.00
2009,07,02,03,29,12.00
2009,07,02,03,30,11.90
2009,07,02,03,31,11.80
2009,07,02,03,32,11.80
2009,07,02,03,33,11.80
2009,07,02,03,34,11.80
2009,07,02,03,35,11.70
2009,07,02,03,36,11.70
2009,07,02,03,37,11.60
2009,07,02,03,38,11.60
2009,07,02,03,39,11.60
2009,07,02,03,40,11.60
2009,07,02,03,41,11.50
2009,07,02,03,42,11.40
2009,07,02,03,43,11.40
2009,07,02,03,44,11.40
2009,07,02,03,45,11.40
2009,07,02,03,46,11.40
2009,07,02,03,47,11.30
2009,07,02,03,48,11.30
2009,07,02,03,49,11.30
2009,07,02,03,50,11.20
2009,07,02,03,51,11.20
2009,07,02,03,52,11.20
2009,07,02,03,53,11.20
2009,07,02,03,54,11.20
2009,07,02,03,55,11.10
2009,07,02,03,56,11.10
2009,07,02,03,57,11.10
2009,07,02,03,58,11.10
2009,07,02,03,59,11.10
2009,07,02,04,00,11.10
2009,07,02,04,01,11.00
2009,07,02,04,02,10.90
2009,07,02,04,03,10.90
2009,07,02,04,04,10.80
2009,07,02,04,05,10.80
2009,07,02,04,06,10.70
2009,07,02,04,07,10.70
2009,07,02,04,08,10.60
2009,07,02,04,09,10.60
2009,07,02,04,10,10.60
2009,07,02,04,11,10.60
2009,07,02,04,12,10.60
2009,07,02,04,13,10.60
2009,07,02,04,14,10.60
2009,07,02,04,15,10.60
2009,07,02,04,16,10.60
2009,07,02,04,17,10.60
2009,07,02,04,18,10.60
2009,07,02,04,19,10.60
2009,07,02,04,20,10.60
2009,07,02,04,21,10.60
2009,07,02,04,22,10.60
2009,07,02,04,23,10.60
2009,07,02,04,24,10.60
2009,07,02,04,25,10.50
2009,07,02,04,26,10.40
2009,07,02,04,27,10.40
2009,07,02,04,28,10.40
2009,07,02,04,29,10.40
2009,07,02,04,30,10.40
2009,07,02,04,31,10.40
2009,07,02,04,32,10.40
2009,07,02,04,33,10.40
2009,07,02,04,34,10.40
2009,07,02,04,35,10.40
2009,07,02,04,36,10.40
2009,07,02,04,37,10.40
2009,07,02,04,38,10.40
2009,07,02,04,39,10.40
2009,07,02,04,40,10.40
2009,07,02,04,41,10.40
2009,07,02,04,42,10.40
2009,07,02,04,43,10.40
2009,07,02,04,44,10.40
2009,07,02,04,45,10.40
2009,07,02,04,46,10.40
2009,07,02,04,47,10.40
2009,07,02,04,48,10.40
2009,07,02,04,49,10.40
2009,07,02,04,50,10.40
2009,07,02,04,51,10.30
2009,07,02,04,52,10.30
2009,07,02,04,53,10.30
2009,07,02,04,54,10.30
2009,07,02,04,55,10.30
2009,07,02,04,56,10.30
2009,07,02,04,57,10.20
2009,07,02,04,58,10.20
2009,07,02,04,59,10.20
2009,07,02,05,00,10.20
2009,07,02,05,01,10.20
2009,07,02,05,02,10.20
2009,07,02,05,03,10.10
2009,07,02,05,04,10.10
2009,07,02,05,05,10.10
2009,07,02,05,06,10.10
2009,07,02,05,07,10.10
2009,07,02,05,08,10.10
2009,07,02,05,09,10.10
2009,07,02,05,10,9.90
2009,07,02,05,11,9.90
2009,07,02,05,12,9.90
2009,07,02,05,13,9.90
2009,07,02,05,14,9.90
2009,07,02,05,15,9.90
2009,07,02,05,16,9.90
2009,07,02,05,17,9.90
2009,07,02,05,18,9.90
2009,07,02,05,19,9.90
2009,07,02,05,20,9.90
2009,07,02,05,21,9.90
2009,07,02,05,22,9.90
2009,07,02,05,23,9.90
2009,07,02,05,24,9.90
2009,07,02,05,25,9.90
2009,07,02,05,26,9.90
2009,07,02,05,27,9.90
2009,07,02,05,28,9.80
2009,07,02,05,29,9.80
2009,07,02,05,30,9.80
2009,07,02,05,31,9.80
2009,07,02,05,32,9.80
2009,07,02,05,33,9.70
2009,07,02,05,34,9.70
2009,07,02,05,35,9.70
2009,07,02,05,36,9.70
2009,07,02,05,37,9.70
2009,07,02,05,38,9.70
2009,07,02,05,39,9.70
2009,07,02,05,40,9.70
2009,07,02,05,41,9.70
2009,07,02,05,42,9.70
2009,07,02,05,43,9.70
2009,07,02,05,44,9.70
2009,07,02,05,45,9.70
2009,07,02,05,46,9.70
2009,07,02,05,47,9.70
2009,07,02,05,48,9.70
2009,07,02,05,49,9.70
2009,07,02,05,50,9.70
2009,07,02,05,51,9.70
2009,07,02,05,52,9.70
2009,07,02,05,53,9.70
2009,07,02,05,54,9.70
2009,07,02,05,55,9.70
2009,07,02,05,56,9.70
2009,07,02,05,57,9.80
2009,07,02,05,58,9.80
2009,07,02,05,59,9.90
2009,07,02,06,00,9.90
2009,07,02,06,01,9.90
2009,07,02,06,02,10.00
2009,07,02,06,03,10.10
2009,07,02,06,04,10.10
2009,07,02,06,05,10.10
2009,07,02,06,06,10.20
2009,07,02,06,07,10.20
2009,07,02,06,08,10.20
2009,07,02,06,09,10.20
2009,07,02,06,10,10.30
2009,07,02,06,11,10.30
2009,07,02,06,12,10.40
2009,07,02,06,13,10.40
2009,07,02,06,14,10.40
2009,07,02,06,15,10.40
2009,07,02,06,16,10.50
2009,07,02,06,17,10.60
2009,07,02,06,18,10.60
2009,07,02,06,19,10.60
2009,07,02,06,20,10.60
2009,07,02,06,21,10.70
2009,07,02,06,22,10.70
2009,07,02,06,23,10.80
2009,07,02,06,24,10.80
2009,07,02,06,25,10.90
2009,07,02,06,26,10.90
2009,07,02,06,27,11.00
2009,07,02,06,28,11.10
2009,07,02,06,29,11.10
2009,07,02,06,30,11.20
2009,07,02,06,31,11.40
2009,07,02,06,32,11.50
2009,07,02,06,33,11.70
2009,07,02,06,34,11.80
2009,07,02,06,35,11.90
2009,07,02,06,36,12.00
2009,07,02,06,37,12.10
2009,07,02,06,38,12.20
2009,07,02,06,39,12.20
2009,07,02,06,40,12.30
2009,07,02,06,41,12.40
2009,07,02,06,42,12.50
2009,07,02,06,43,12.60
2009,07,02,06,44,12.70
2009,07,02,06,45,12.70
2009,07,02,06,46,12.80
2009,07,02,06,47,12.80
2009,07,02,06,48,12.90
2009,07,02,06,49,12.90
2009,07,02,06,50,13.00
2009,07,02,06,51,13.00
2009,07,02,06,52,13.00
2009,07,02,06,53,13.00
2009,07,02,06,54,13.00
2009,07,02,06,55,13.00
2009,07,02,06,56,13.10
2009,07,02,06,57,13.10
2009,07,02,06,58,13.10
2009,07,02,06,59,13.20
2009,07,02,07,00,13.30
2009,07,02,07,01,13.30
2009,07,02,07,02,13.40
2009,07,02,07,03,13.50
2009,07,02,07,04,13.60
2009,07,02,07,05,13.60
2009,07,02,07,06,13.70
2009,07,02,07,07,13.80
2009,07,02,07,08,13.90
2009,07,02,07,09,14.00
2009,07,02,07,10,14.10
2009,07,02,07,11,14.20
2009,07,02,07,12,14.20
2009,07,02,07,13,14.40
2009,07,02,07,14,14.50
2009,07,02,07,15,14.60
2009,07,02,07,16,14.70
2009,07,02,07,17,14.80
2009,07,02,07,18,14.90
2009,07,02,07,19,15.00
2009,07,02,07,20,15.10
2009,07,02,07,21,15.10
2009,07,02,07,22,15.20
2009,07,02,07,23,15.30
2009,07,02,07,24,15.40
2009,07,02,07,25,15.50
2009,07,02,07,26,15.60
2009,07,02,07,27,15.80
2009,07,02,07,28,15.90
2009,07,02,07,29,16.00
2009,07,02,07,30,16.10
2009,07,02,07,31,16.30
2009,07,02,07,32,16.40
2009,07,02,07,33,16.40
2009,07,02,07,34,16.60
2009,07,02,07,35,16.70
2009,07,02,07,36,16.70
2009,07,02,07,37,16.80
2009,07,02,07,38,16.80
2009,07,02,07,39,16.80
2009,07,02,07,40,16.80
2009,07,02,07,41,16.80
2009,07,02,07,42,16.70
2009,07,02,07,43,16.70
2009,07,02,07,44,16.70
2009,07,02,07,45,16.70
2009,07,02,07,46,16.70
2009,07,02,07,47,16.70
2009,07,02,07,48,16.70
2009,07,02,07,49,16.70
2009,07,02,07,50,16.70
2009,07,02,07,51,16.70
2009,07,02,07,52,16.70
2009,07,02,07,53,16.70
2009,07,02,07,54,16.70
2009,07,02,07,55,16.70
2009,07,02,07,56,16.70
2009,07,02,07,57,16.70
2009,07,02,07,58,16.70
2009,07,02,07,59,16.70
2009,07,02,08,00,16.70
2009,07,02,08,01,16.70
2009,07,02,08,02,16.70
2009,07,02,08,03,16.80
2009,07,02,08,04,16.80
2009,07,02,08,05,16.90
2009,07,02,08,06,16.90
2009,07,02,08,07,16.90
2009,07,02,08,08,16.90
2009,07,02,08,09,16.90
2009,07,02,08,10,16.90
2009,07,02,08,11,17.00
2009,07,02,08,12,16.90
2009,07,02,08,13,16.90
2009,07,02,08,14,16.90
2009,07,02,08,15,16.90
2009,07,02,08,16,16.90
2009,07,02,08,17,16.90
2009,07,02,08,18,16.90
2009,07,02,08,19,16.80
2009,07,02,08,20,16.80
2009,07,02,08,21,16.80
2009,07,02,08,22,16.90
2009,07,02,08,23,16.90
2009,07,02,08,24,16.90
2009,07,02,08,25,17.00
2009,07,02,08,26,17.00
2009,07,02,08,27,17.00
2009,07,02,08,28,17.00
2009,07,02,08,29,17.00
2009,07,02,08,30,17.00
2009,07,02,08,31,17.00
2009,07,02,08,32,16.90
2009,07,02,08,33,16.90
2009,07,02,08,34,16.90
2009,07,02,08,35,16.90
2009,07,02,08,36,16.90
2009,07,02,08,37,16.90
2009,07,02,08,38,17.00
2009,07,02,08,39,17.00
2009,07,02,08,40,17.00
2009,07,02,08,41,17.00
2009,07,02,08,42,17.00
2009,07,02,08,43,17.00
2009,07,02,08,44,17.10
2009,07,02,08,45,17.10
2009,07,02,08,46,17.10
2009,07,02,08,47,17.20
2009,07,02,08,48,17.20
2009,07,02,08,49,17.20
2009,07,02,08,50,17.30
2009,07,02,08,51,17.30
2009,07,02,08,52,17.30
2009,07,02,08,53,17.30
2009,07,02,08,54,17.30
2009,07,02,08,55,17.30
2009,07,02,08,56,17.30
2009,07,02,08,57,17.30
2009,07,02,08,58,17.30
2009,07,02,08,59,17.30
2009,07,02,09,00,17.30
2009,07,02,09,01,17.30
2009,07,02,09,02,17.30
2009,07,02,09,03,17.30
2009,07,02,09,04,17.40
2009,07,02,09,05,17.40
2009,07,02,09,06,17.50
2009,07,02,09,07,17.50
2009,07,02,09,08,17.60
2009,07,02,09,09,17.60
2009,07,02,09,10,17.60
2009,07,02,09,11,17.50
2009,07,02,09,12,17.40
2009,07,02,09,13,17.40
2009,07,02,09,14,17.40
2009,07,02,09,15,17.40
2009,07,02,09,16,17.50
2009,07,02,09,17,17.50
2009,07,02,09,18,17.50
2009,07,02,09,19,17.50
2009,07,02,09,20,17.40
2009,07,02,09,21,17.40
2009,07,02,09,22,17.40
2009,07,02,09,23,17.40
2009,07,02,09,24,17.40
2009,07,02,09,25,17.40
2009,07,02,09,26,17.50
2009,07,02,09,27,17.50
2009,07,02,09,28,17.50
2009,07,02,09,29,17.60
2009,07,02,09,30,17.50
2009,07,02,09,31,17.50
2009,07,02,09,32,17.60
2009,07,02,09,33,17.70
2009,07,02,09,34,17.80
2009,07,02,09,35,17.80
2009,07,02,09,36,17.90
2009,07,02,09,37,17.90
2009,07,02,09,38,17.90
2009,07,02,09,39,17.90
2009,07,02,09,40,17.90
2009,07,02,09,41,17.90
2009,07,02,09,42,17.90
2009,07,02,09,43,17.90
2009,07,02,09,44,17.90
2009,07,02,09,45,17.90
2009,07,02,09,46,17.90
2009,07,02,09,47,17.80
2009,07,02,09,48,17.80
2009,07,02,09,49,17.80
2009,07,02,09,50,17.80
2009,07,02,09,51,17.80
2009,07,02,09,52,17.80
2009,07,02,09,53,17.80
2009,07,02,09,54,17.80
2009,07,02,09,55,17.80
2009,07,02,09,56,17.80
2009,07,02,09,57,17.80
2009,07,02,09,58,17.80
2009,07,02,09,59,17.80
2009,07,02,10,00,17.90
2009,07,02,10,01,17.90
2009,07,02,10,02,17.90
2009,07,02,10,03,18.00
2009,07,02,10,04,18.10
2009,07,02,10,05,18.10
2009,07,02,10,06,18.20
2009,07,02,10,07,18.20
2009,07,02,10,08,18.20
2009,07,02,10,09,18.30
2009,07,02,10,10,18.30
2009,07,02,10,11,18.30
2009,07,02,10,12,18.30
2009,07,02,10,13,18.30
2009,07,02,10,14,18.20
2009,07,02,10,15,18.20
2009,07,02,10,16,18.20
2009,07,02,10,17,18.30
2009,07,02,10,18,18.20
2009,07,02,10,19,18.20
2009,07,02,10,20,18.20
2009,07,02,10,21,18.20
2009,07,02,10,22,18.10
2009,07,02,10,23,18.10
2009,07,02,10,24,18.20
2009,07,02,10,25,18.20
2009,07,02,10,26,18.20
2009,07,02,10,27,18.20
2009,07,02,10,28,18.30
2009,07,02,10,29,18.30
2009,07,02,10,30,18.40
2009,07,02,10,31,18.40
2009,07,02,10,32,18.40
2009,07,02,10,33,18.40
2009,07,02,10,34,18.40
2009,07,02,10,35,18.40
2009,07,02,10,36,18.50
2009,07,02,10,37,18.50
2009,07,02,10,38,18.50
2009,07,02,10,39,18.60
2009,07,02,10,40,18.60
2009,07,02,10,41,18.70
2009,07,02,10,42,18.70
2009,07,02,10,43,18.80
2009,07,02,10,44,18.70
2009,07,02,10,45,18.70
2009,07,02,10,46,18.70
2009,07,02,10,47,18.70
2009,07,02,10,48,18.70
2009,07,02,10,49,18.60
2009,07,02,10,50,18.60
2009,07,02,10,51,18.50
2009,07,02,10,52,18.40
2009,07,02,10,53,18.40
2009,07,02,10,54,18.40
2009,07,02,10,55,18.40
2009,07,02,10,56,18.50
2009,07,02,10,57,18.50
2009,07,02,10,58,18.60
2009,07,02,10,59,18.70
2009,07,02,11,00,18.70
2009,07,02,11,01,18.70
2009,07,02,11,02,18.70
2009,07,02,11,03,18.70
2009,07,02,11,04,18.60
2009,07,02,11,05,18.60
2009,07,02,11,06,18.60
2009,07,02,11,07,18.60
2009,07,02,11,08,18.70
2009,07,02,11,09,18.80
2009,07,02,11,10,18.90
2009,07,02,11,11,18.90
2009,07,02,11,12,18.90
2009,07,02,11,13,18.90
2009,07,02,11,14,18.90
2009,07,02,11,15,18.90
2009,07,02,11,16,19.10
2009,07,02,11,17,19.00
2009,07,02,11,18,19.00
2009,07,02,11,19,18.90
2009,07,02,11,20,19.00
2009,07,02,11,21,19.10
2009,07,02,11,22,19.10
2009,07,02,11,23,19.10
2009,07,02,11,24,19.10
2009,07,02,11,25,19.10
2009,07,02,11,26,19.10
2009,07,02,11,27,19.10
2009,07,02,11,28,19.10
2009,07,02,11,29,19.10
2009,07,02,11,30,19.10
2009,07,02,11,31,19.10
2009,07,02,11,32,19.10
2009,07,02,11,33,19.10
2009,07,02,11,34,19.10
2009,07,02,11,35,19.10
2009,07,02,11,36,19.10
2009,07,02,11,37,19.10
2009,07,02,11,38,19.10
2009,07,02,11,39,19.20
2009,07,02,11,40,19.20
2009,07,02,11,41,19.30
2009,07,02,11,42,19.30
2009,07,02,11,43,19.40
2009,07,02,11,44,19.40
2009,07,02,11,45,19.30
2009,07,02,11,46,19.40
2009,07,02,11,47,19.40
2009,07,02,11,48,19.40
2009,07,02,11,49,19.40
2009,07,02,11,50,19.40
2009,07,02,11,51,19.40
2009,07,02,11,52,19.40
2009,07,02,11,53,19.40
2009,07,02,11,54,19.50
2009,07,02,11,55,19.40
2009,07,02,11,56,19.50
2009,07,02,11,57,19.50
2009,07,02,11,58,19.50
2009,07,02,11,59,19.50
2009,07,02,12,00,19.50
2009,07,02,12,01,19.50
2009,07,02,12,02,19.50
2009,07,02,12,03,19.50
2009,07,02,12,04,19.60
2009,07,02,12,05,19.70
2009,07,02,12,06,19.80
2009,07,02,12,07,19.80
2009,07,02,12,08,19.80
2009,07,02,12,09,19.70
2009,07,02,12,10,19.70
2009,07,02,12,11,19.70
2009,07,02,12,12,19.60
2009,07,02,12,13,19.50
2009,07,02,12,14,19.60
2009,07,02,12,15,19.70
2009,07,02,12,16,19.80
2009,07,02,12,17,19.90
2009,07,02,12,18,19.90
2009,07,02,12,19,19.90
2009,07,02,12,20,20.00
2009,07,02,12,21,20.10
2009,07,02,12,22,20.20
2009,07,02,12,23,20.20
2009,07,02,12,24,20.20
2009,07,02,12,25,20.20
2009,07,02,12,26,20.20
2009,07,02,12,27,20.30
2009,07,02,12,28,20.40
2009,07,02,12,29,20.40
2009,07,02,12,30,20.40
2009,07,02,12,31,20.30
2009,07,02,12,32,20.30
2009,07,02,12,33,20.20
2009,07,02,12,34,20.30
2009,07,02,12,35,20.30
2009,07,02,12,36,20.20
2009,07,02,12,37,20.20
2009,07,02,12,38,20.10
2009,07,02,12,39,20.00
2009,07,02,12,40,19.90
2009,07,02,12,41,19.90
2009,07,02,12,42,19.90
2009,07,02,12,43,19.90
2009,07,02,12,44,19.90
2009,07,02,12,45,20.00
2009,07,02,12,46,20.00
2009,07,02,12,47,19.90
2009,07,02,12,48,19.90
2009,07,02,12,49,20.10
2009,07,02,12,50,20.10
2009,07,02,12,51,20.20
2009,07,02,12,52,20.20
2009,07,02,12,53,20.20
2009,07,02,12,54,20.30
2009,07,02,12,55,20.40
2009,07,02,12,56,20.30
2009,07,02,12,57,20.30
2009,07,02,12,58,20.30
2009,07,02,12,59,20.30
2009,07,02,13,00,20.30
2009,07,02,13,01,20.40
2009,07,02,13,02,20.40
2009,07,02,13,03,20.50
2009,07,02,13,04,20.40
2009,07,02,13,05,20.40
2009,07,02,13,06,20.40
2009,07,02,13,07,20.40
2009,07,02,13,08,20.40
2009,07,02,13,09,20.50
2009,07,02,13,10,20.60
2009,07,02,13,11,20.60
2009,07,02,13,12,20.70
2009,07,02,13,13,20.70
2009,07,02,13,14,20.80
2009,07,02,13,15,20.80
2009,07,02,13,16,20.70
2009,07,02,13,17,20.70
2009,07,02,13,18,20.60
2009,07,02,13,19,20.60
2009,07,02,13,20,20.60
2009,07,02,13,21,20.60
2009,07,02,13,22,20.50
2009,07,02,13,23,20.40
2009,07,02,13,24,20.30
2009,07,02,13,25,20.20
2009,07,02,13,26,20.20
2009,07,02,13,27,20.20
2009,07,02,13,28,20.20
2009,07,02,13,29,20.30
2009,07,02,13,30,20.40
2009,07,02,13,31,20.40
2009,07,02,13,32,20.40
2009,07,02,13,33,20.40
2009,07,02,13,34,20.40
2009,07,02,13,35,20.30
2009,07,02,13,36,20.30
2009,07,02,13,37,20.40
2009,07,02,13,38,20.40
2009,07,02,13,39,20.40
2009,07,02,13,40,20.50
2009,07,02,13,41,20.50
2009,07,02,13,42,20.60
2009,07,02,13,43,20.60
2009,07,02,13,44,20.60
2009,07,02,13,45,20.50
2009,07,02,13,46,20.40
2009,07,02,13,47,20.50
2009,07,02,13,48,20.60
2009,07,02,13,49,20.70
2009,07,02,13,50,20.70
2009,07,02,13,51,20.60
2009,07,02,13,52,20.50
2009,07,02,13,53,20.40
2009,07,02,13,54,20.40
2009,07,02,13,55,20.30
2009,07,02,13,56,20.30
2009,07,02,13,57,20.30
2009,07,02,13,58,20.20
2009,07,02,13,59,20.30
2009,07,02,14,00,20.20
2009,07,02,14,01,20.20
2009,07,02,14,02,20.20
2009,07,02,14,03,20.20
2009,07,02,14,04,20.20
2009,07,02,14,05,20.30
2009,07,02,14,06,20.30
2009,07,02,14,07,20.40
2009,07,02,14,08,20.50
2009,07,02,14,09,20.50
2009,07,02,14,10,20.50
2009,07,02,14,11,20.60
2009,07,02,14,12,20.70
2009,07,02,14,13,20.70
2009,07,02,14,14,20.70
2009,07,02,14,15,20.80
2009,07,02,14,16,20.80
2009,07,02,14,17,20.90
2009,07,02,14,18,21.00
2009,07,02,14,19,20.90
2009,07,02,14,20,20.80
2009,07,02,14,21,20.70
2009,07,02,14,22,20.60
2009,07,02,14,23,20.60
2009,07,02,14,24,20.60
2009,07,02,14,25,20.70
2009,07,02,14,26,20.80
2009,07,02,14,27,20.80
2009,07,02,14,28,20.80
2009,07,02,14,29,20.70
2009,07,02,14,30,20.70
2009,07,02,14,31,20.70
2009,07,02,14,32,20.70
2009,07,02,14,33,20.70
2009,07,02,14,34,20.70
2009,07,02,14,35,20.60
2009,07,02,14,36,20.60
2009,07,02,14,37,20.60
2009,07,02,14,38,20.60
2009,07,02,14,39,20.70
2009,07,02,14,40,20.60
2009,07,02,14,41,20.70
2009,07,02,14,42,20.80
2009,07,02,14,43,20.80
2009,07,02,14,44,20.80
2009,07,02,14,45,20.90
2009,07,02,14,46,20.80
2009,07,02,14,47,20.80
2009,07,02,14,48,20.90
2009,07,02,14,49,20.90
2009,07,02,14,50,20.90
2009,07,02,14,51,20.90
2009,07,02,14,52,20.90
2009,07,02,14,53,21.00
2009,07,02,14,54,21.00
2009,07,02,14,55,21.10
2009,07,02,14,56,21.10
2009,07,02,14,57,21.10
2009,07,02,14,58,21.10
2009,07,02,14,59,21.10
2009,07,02,15,00,21.10
2009,07,02,15,01,21.00
2009,07,02,15,02,21.00
2009,07,02,15,03,21.00
2009,07,02,15,04,21.00
2009,07,02,15,05,21.00
2009,07,02,15,06,21.00
2009,07,02,15,07,21.10
2009,07,02,15,08,21.20
2009,07,02,15,09,21.30
2009,07,02,15,10,21.30
2009,07,02,15,11,21.30
2009,07,02,15,12,21.30
2009,07,02,15,13,21.30
2009,07,02,15,14,21.30
2009,07,02,15,15,21.20
2009,07,02,15,16,21.20
2009,07,02,15,17,21.20
2009,07,02,15,18,21.20
2009,07,02,15,19,21.30
2009,07,02,15,20,21.40
2009,07,02,15,21,21.30
2009,07,02,15,22,21.30
2009,07,02,15,23,21.30
2009,07,02,15,24,21.40
2009,07,02,15,25,21.40
2009,07,02,15,26,21.50
2009,07,02,15,27,21.60
2009,07,02,15,28,21.60
2009,07,02,15,29,21.60
2009,07,02,15,30,21.60
2009,07,02,15,31,21.40
2009,07,02,15,32,21.30
2009,07,02,15,33,21.30
2009,07,02,15,34,21.20
2009,07,02,15,35,21.20
2009,07,02,15,36,21.20
2009,07,02,15,37,21.20
2009,07,02,15,38,21.20
2009,07,02,15,39,21.30
2009,07,02,15,40,21.30
2009,07,02,15,41,21.30
2009,07,02,15,42,21.30
2009,07,02,15,43,21.30
2009,07,02,15,44,21.30
2009,07,02,15,45,21.30
2009,07,02,15,46,21.30
2009,07,02,15,47,21.30
2009,07,02,15,48,21.30
2009,07,02,15,49,21.30
2009,07,02,15,50,21.40
2009,07,02,15,51,21.40
2009,07,02,15,52,21.50
2009,07,02,15,53,21.40
2009,07,02,15,54,21.40
2009,07,02,15,55,21.40
2009,07,02,15,56,21.40
2009,07,02,15,57,21.50
2009,07,02,15,58,21.70
2009,07,02,15,59,21.80
2009,07,02,16,00,21.80
2009,07,02,16,01,21.80
2009,07,02,16,02,21.80
2009,07,02,16,03,21.80
2009,07,02,16,04,21.80
2009,07,02,16,05,21.80
2009,07,02,16,06,21.80
2009,07,02,16,07,21.80
2009,07,02,16,08,21.90
2009,07,02,16,09,21.90
2009,07,02,16,10,22.00
2009,07,02,16,11,21.90
2009,07,02,16,12,21.90
2009,07,02,16,13,22.00
2009,07,02,16,14,22.00
2009,07,02,16,15,22.00
2009,07,02,16,16,22.00
2009,07,02,16,17,22.10
2009,07,02,16,18,22.10
2009,07,02,16,19,22.10
2009,07,02,16,20,22.20
2009,07,02,16,21,22.20
2009,07,02,16,22,22.20
2009,07,02,16,23,22.20
2009,07,02,16,24,22.10
2009,07,02,16,25,22.10
2009,07,02,16,26,22.10
2009,07,02,16,27,22.20
2009,07,02,16,28,22.20
2009,07,02,16,29,22.20
2009,07,02,16,30,22.30
2009,07,02,16,31,22.30
2009,07,02,16,32,22.30
2009,07,02,16,33,22.40
2009,07,02,16,34,22.50
2009,07,02,16,35,22.60
2009,07,02,16,36,22.70
2009,07,02,16,37,22.70
2009,07,02,16,38,22.70
2009,07,02,16,39,22.70
2009,07,02,16,40,22.70
2009,07,02,16,41,22.80
2009,07,02,16,42,22.90
2009,07,02,16,43,23.00
2009,07,02,16,44,23.20
2009,07,02,16,45,23.30
2009,07,02,16,46,23.30
2009,07,02,16,47,23.30
2009,07,02,16,48,23.40
2009,07,02,16,49,23.50
2009,07,02,16,50,23.60
2009,07,02,16,51,23.70
2009,07,02,16,52,23.70
2009,07,02,16,53,23.70
2009,07,02,16,54,23.70
2009,07,02,16,55,23.60
2009,07,02,16,56,23.50
2009,07,02,16,57,23.50
2009,07,02,16,58,23.60
2009,07,02,16,59,23.50
2009,07,02,17,00,23.60
2009,07,02,17,01,23.70
2009,07,02,17,02,23.70
2009,07,02,17,03,23.70
2009,07,02,17,04,23.70
2009,07,02,17,05,23.70
2009,07,02,17,06,23.80
2009,07,02,17,07,23.80
2009,07,02,17,08,23.90
2009,07,02,17,09,24.00
2009,07,02,17,10,24.10
2009,07,02,17,11,24.30
2009,07,02,17,12,24.30
2009,07,02,17,13,24.30
2009,07,02,17,14,24.30
2009,07,02,17,15,24.30
2009,07,02,17,16,24.40
2009,07,02,17,17,24.50
2009,07,02,17,18,24.60
2009,07,02,17,19,24.60
2009,07,02,17,20,24.60
2009,07,02,17,21,24.50